Date String (YYYY-MM-DD hh:mm:ss) UTC,Instrument flags,Ambient pressure (hPa),Sample flow (lpm),Bypass flow (lpm),Sample temperature (°C),Ambient temperature (°C),ASC tube jacket temperature (°C),LED temperature (°C),Box temperature (°C),Sample RH (%),Span deviation,Mass concentration (μg/m³),Mass concentration (μg/m³),Mass concentration (μg/m³)
DateTimeUTC,F1_M11,P_M11,Q1_M11,Q2_M11,T1_M11,T2_M11,T3_M11,T4_M11,T5_M11,U1_M11,ZSPAN_M11,X2_M11,X0_M11,X1_M11
2021-10-28 16:00:00,,0831.7,5.01,0.00,21.2,20.5,00.0,30.4,22.9,15.7,0000.0,0003.36,0015.47,0001.62
2021-10-28 16:01:00,,0831.7,5.00,0.00,21.2,20.5,00.0,30.4,22.8,15.6,0000.0,0003.27,0014.49,0001.61
2021-10-28 16:02:00,,0831.7,4.99,0.00,21.2,20.5,00.0,30.4,22.8,15.7,0000.0,0003.25,0014.27,0001.62
2021-10-28 16:03:00,,0831.7,5.01,0.00,21.2,20.5,00.0,30.4,22.8,15.7,0000.0,0003.26,0015.29,0001.62
2021-10-28 16:04:00,,0831.7,4.99,0.00,21.2,20.5,00.0,30.3,22.8,15.8,0000.0,0003.28,0015.37,0001.61
2021-10-28 16:05:00,,0831.7,5.01,0.00,21.2,20.5,00.0,30.3,22.8,15.8,0000.0,0003.17,0013.55,0001.60
2021-10-28 16:06:00,,0831.8,5.00,0.00,21.2,20.5,00.0,30.3,22.8,15.8,0000.0,0003.17,0013.03,0001.60
2021-10-28 16:07:00,,0831.7,4.99,0.00,21.2,20.6,00.0,30.3,22.9,15.8,0000.0,0003.24,0013.83,0001.63
2021-10-28 16:08:00,,0831.7,4.99,0.00,21.2,20.6,00.0,30.3,22.9,15.7,0000.0,0003.24,0013.56,0001.65
2021-10-28 16:09:00,,0831.6,5.01,0.00,21.2,20.6,00.0,30.3,22.9,15.7,0000.0,0003.19,0013.80,0001.66
2021-10-28 16:10:00,,0831.7,5.01,0.00,21.2,20.6,00.0,30.3,22.9,15.9,0000.0,0003.19,0014.27,0001.67
2021-10-28 16:11:00,,0831.8,4.99,0.00,21.2,20.6,00.0,30.3,22.9,15.9,0000.0,0003.38,0015.77,0001.74
2021-10-28 16:12:00,,0831.7,5.00,0.00,21.2,20.7,00.0,30.3,22.9,15.6,0000.0,0003.38,0015.79,0001.74
2021-10-28 16:13:00,,0831.7,5.00,0.00,21.2,20.7,00.0,30.3,23.0,15.6,0000.0,0003.29,0014.23,0001.73
2021-10-28 16:14:00,,0831.7,5.00,0.00,21.3,20.8,00.0,30.3,23.0,15.5,0000.0,0003.20,0012.70,0001.73
2021-10-28 16:15:00,,0831.7,5.00,0.00,21.3,20.8,00.0,30.3,23.0,15.6,0000.0,0003.15,0012.81,0001.72
2021-10-28 16:16:00,,0831.7,4.99,0.00,21.3,20.9,00.0,30.3,23.1,15.6,0000.0,0003.11,0012.21,0001.71
2021-10-28 16:17:00,,0831.7,5.01,0.00,21.3,20.9,00.0,30.4,23.1,15.8,0000.0,0003.06,0011.51,0001.70
2021-10-28 16:18:00,,0831.7,5.00,0.00,21.3,20.9,00.0,30.4,23.1,15.7,0000.0,0003.00,0010.27,0001.70
2021-10-28 16:19:00,,0831.8,5.01,0.00,21.3,20.9,00.0,30.4,23.1,15.7,0000.0,0003.10,0011.29,0001.72
2021-10-28 16:20:00,,0831.7,5.00,0.00,21.3,20.8,00.0,30.4,23.1,15.8,0000.0,0003.15,0011.13,0001.73
2021-10-28 16:21:00,,0831.7,4.99,0.00,21.3,20.8,00.0,30.4,23.1,15.8,0000.0,0003.09,0010.29,0001.74
2021-10-28 16:22:00,,0831.7,5.00,0.00,21.3,20.8,00.0,30.4,23.0,15.7,0000.0,0002.55,0007.86,0001.67
2021-10-28 16:23:00,,0831.7,5.00,0.00,21.3,20.8,00.0,30.4,23.0,15.7,0000.0,0002.52,0007.83,0001.67
2021-10-28 16:24:00,,0831.7,5.01,0.00,21.3,20.7,00.0,30.4,23.0,15.6,0000.0,0002.61,0007.96,0001.70
2021-10-28 16:25:00,,0831.7,5.00,0.00,21.3,20.7,00.0,30.4,23.0,15.6,0000.0,0002.66,0008.00,0001.73
2021-10-28 16:26:00,,0831.7,4.99,0.00,21.3,20.7,00.0,30.4,23.0,15.7,0000.0,0002.73,0007.79,0001.77
2021-10-28 16:27:00,,0831.7,4.99,0.00,21.3,20.7,00.0,30.4,23.0,15.6,0000.0,0002.79,0007.89,0001.79
2021-10-28 16:28:00,,0831.7,5.01,0.00,21.3,20.7,00.0,30.4,23.0,15.6,0000.0,0002.79,0007.97,0001.80
2021-10-28 16:29:00,,0831.7,4.98,0.00,21.3,20.7,00.0,30.4,23.0,15.6,0000.0,0002.78,0007.99,0001.81
2021-10-28 16:30:00,,0831.7,5.00,0.00,21.3,20.8,00.0,30.4,23.0,15.7,0000.0,0002.76,0007.57,0001.81
2021-10-28 16:31:00,,0831.6,5.00,0.00,21.3,20.8,00.0,30.4,23.0,15.7,0000.0,0002.70,0007.96,0001.81
2021-10-28 16:32:00,,0831.7,5.00,0.00,21.3,20.8,00.0,30.4,23.1,15.6,0000.0,0002.74,0007.98,0001.81
2021-10-28 16:33:00,,0831.7,5.01,0.00,21.3,20.9,00.0,30.4,23.1,15.4,0000.0,0002.75,0008.00,0001.81
2021-10-28 16:34:00,,0831.7,5.00,0.00,21.3,20.9,00.0,30.4,23.1,15.6,0000.0,0002.73,0007.77,0001.81
2021-10-28 16:35:00,,0831.7,4.99,0.00,21.4,20.9,00.0,30.4,23.1,15.4,0000.0,0002.67,0008.84,0001.80
2021-10-28 16:36:00,,0831.7,5.00,0.00,21.4,20.9,00.0,30.4,23.2,15.4,0000.0,0002.65,0008.80,0001.79
2021-10-28 16:37:00,,0831.8,4.99,0.00,21.4,21.0,00.0,30.4,23.2,15.5,0000.0,0002.63,0008.88,0001.77
2021-10-28 16:38:00,,0831.7,5.01,0.00,21.4,21.0,00.0,30.4,23.2,15.5,0000.0,0002.55,0008.88,0001.76
2021-10-28 16:39:00,,0831.7,5.00,0.00,21.4,21.0,00.0,30.4,23.2,15.5,0000.0,0002.53,0009.40,0001.76
2021-10-28 16:40:00,,0831.7,4.99,0.00,21.5,21.1,00.0,30.5,23.3,15.5,0000.0,0002.49,0010.15,0001.76
2021-10-28 16:41:00,,0831.7,5.01,0.00,21.5,21.1,00.0,30.5,23.3,15.5,0000.0,0002.47,0009.89,0001.78
2021-10-28 16:42:00,,0831.8,4.99,0.00,21.5,21.1,00.0,30.5,23.3,15.6,0000.0,0002.44,0009.75,0001.79
2021-10-28 16:43:00,,0831.7,5.02,0.00,21.5,21.1,00.0,30.5,23.4,15.4,0000.0,0002.42,0009.93,0001.81
2021-10-28 16:44:00,,0831.7,4.98,0.00,21.6,21.2,00.0,30.5,23.4,15.5,0000.0,0002.46,0010.95,0001.84
2021-10-28 16:45:00,,0831.8,5.00,0.00,21.6,21.2,00.0,30.5,23.4,15.5,0000.0,0002.51,0012.39,0001.85
2021-10-28 16:46:00,,0831.7,5.00,0.00,21.6,21.2,00.0,30.5,23.4,15.2,0000.0,0002.58,0011.49,0001.87
2021-10-28 16:47:00,,0831.7,5.00,0.00,21.6,21.2,00.0,30.6,23.4,15.1,0000.0,0002.59,0011.51,0001.91
2021-10-28 16:48:00,,0831.8,5.01,0.00,21.6,21.2,00.0,30.6,23.5,15.1,0000.0,0002.64,0012.16,0001.95
2021-10-28 16:49:00,,0831.7,4.99,0.00,21.7,21.2,00.0,30.6,23.5,15.1,0000.0,0002.70,0012.52,0002.01
2021-10-28 16:50:00,,0831.8,5.01,0.00,21.7,21.2,00.0,30.6,23.5,15.0,0000.0,0002.78,0012.22,0002.07
2021-10-28 16:51:00,,0831.7,5.00,0.00,21.7,21.2,00.0,30.6,23.5,15.1,0000.0,0002.86,0011.52,0002.13
2021-10-28 16:52:00,,0831.7,5.00,0.00,21.7,21.2,00.0,30.6,23.5,15.0,0000.0,0002.90,0011.56,0002.18
2021-10-28 16:53:00,,0831.8,4.99,0.00,21.7,21.2,00.0,30.6,23.5,15.1,0000.0,0002.97,0011.32,0002.23
2021-10-28 16:54:00,,0831.8,5.00,0.00,21.7,21.2,00.0,30.6,23.5,15.2,0000.0,0003.04,0011.10,0002.27
2021-10-28 16:55:00,,0831.7,4.99,0.00,21.7,21.3,00.0,30.7,23.5,15.3,0000.0,0003.12,0010.23,0002.31
2021-10-28 16:56:00,,0831.8,5.01,0.00,21.7,21.3,00.0,30.7,23.5,15.2,0000.0,0003.16,0009.19,0002.37
2021-10-28 16:57:00,,0831.7,5.00,0.00,21.8,21.3,00.0,30.7,23.6,15.0,0000.0,0003.19,0009.89,0002.43
2021-10-28 16:58:00,,0831.8,5.00,0.00,21.8,21.4,00.0,30.7,23.6,14.9,0000.0,0003.23,0009.90,0002.48
2021-10-28 16:59:00,,0831.7,5.00,0.00,21.8,21.4,00.0,30.7,23.7,14.8,0000.0,0003.24,0009.18,0002.53
